GW7187 Weather Reports


time (UTC)temp
F
wind
direction
speed
knots
gust
knots
rain 1hr
in
rain 24hr
in
rain mn
in
humidity
%
barometer
mb
20260509143748 84 252 0.0 0.0 0.00 0.00 0.00 32 1014.9
20260509143247 84 341 0.0 0.0 0.00 0.00 0.00 31 1015.2
20260509142747 85 324 0.0 0.0 0.00 0.00 0.00 32 1014.9
20260509142247 84 294 2.6 2.6 0.00 0.00 0.00 30 1014.9
20260509141747 86 325 0.9 0.9 0.00 0.00 0.00 32 1015.2
20260509141247 85 313 0.0 0.0 0.00 0.00 0.00 32 1014.9
20260509140749 85 344 2.6 2.6 0.00 0.00 0.00 33 1015.2
20260509140247 84 48 1.7 1.7 0.00 0.00 0.00 32 1015.2
20260509135747 84 30 0.0 0.0 0.00 0.00 0.00 31 1015.2
20260509135249 86 7 0.0 0.0 0.00 0.00 0.00 31 1015.2
20260509134747 84 66 0.9 0.9 0.00 0.00 0.00 32 1015.2
20260509134248 86 317 1.7 1.7 0.00 0.00 0.00 33 1015.2
20260509133748 85 110 0.0 0.0 0.00 0.00 0.00 32 1015.2
20260509133247 85 84 1.7 1.7 0.00 0.00 0.00 32 1015.6
20260509132748 84 90 0.0 0.0 0.00 0.00 0.00 33 1015.2
20260509132248 85 66 0.9 0.9 0.00 0.00 0.00 32 1015.2
20260509131748 85 340 0.9 0.9 0.00 0.00 0.00 32 1015.2
20260509131247 85 32 0.9 0.9 0.00 0.00 0.00 32 1015.2
20260509130747 84 96 1.7 1.7 0.00 0.00 0.00 35 1015.6
20260509130247 84 240 1.7 1.7 0.00 0.00 0.00 33 1015.2
20260509125748 84 0 0.0 0.0 0.00 0.00 0.00 32 1015.2
20260509125251 85 84 0.0 0.0 0.00 0.00 0.00 32 1015.6
20260509124748 86 96 0.0 0.0 0.00 0.00 0.00 32 1015.9
20260509124247 85 174 1.7 1.7 0.00 0.00 0.00 31 1015.6
20260509123747 86 83 0.9 0.9 0.00 0.00 0.00 31 1015.2
20260509123247 85 133 0.9 0.9 0.00 0.00 0.00 32 1015.9
20260509122747 85 132 1.7 1.7 0.00 0.00 0.00 33 1015.9
20260509122247 85 258 0.9 0.9 0.00 0.00 0.00 32 1015.9
20260509121748 85 84 1.7 1.7 0.00 0.00 0.00 32 1015.9
20260509121248 86 257 0.0 0.0 0.00 0.00 0.00 32 1015.9
20260509120747 85 354 0.9 0.9 0.00 0.00 0.00 34 1016.3
20260509120247 83 114 0.9 0.9 0.00 0.00 0.00 33 1015.9
20260509115748 82 238 3.5 3.5 0.00 0.00 0.00 34 1016.3
20260509115247 82 232 2.6 2.6 0.00 0.00 0.00 34 1016.3
20260509114747 82 218 2.6 2.6 0.00 0.00 0.00 34 1016.3
20260509113851 81 186 2.6 2.6 0.00 0.00 0.00 36 1016.3
20260509113247 82 340 0.9 0.9 0.00 0.00 0.00 35 1016.3
20260509112747 81 258 3.5 3.5 0.00 0.00 0.00 35 1016.6
20260509112247 82 253 4.3 5.2 0.00 0.00 0.00 34 1016.6
20260509111747 83 133 2.6 2.6 0.00 0.00 0.00 33 1016.3
20260509111247 83 120 2.6 2.6 0.00 0.00 0.00 32 1016.6
20260509110747 82 144 1.7 1.7 0.00 0.00 0.00 34 1016.6
20260509110247 82 144 1.7 1.7 0.00 0.00 0.00 34 1016.6
20260509105747 82 162 2.6 2.6 0.00 0.00 0.00 35 1016.6
20260509105248 81 84 0.9 0.9 0.00 0.00 0.00 35 1016.9
20260509104748 82 298 3.5 3.5 0.00 0.00 0.00 35 1016.9
20260509104248 82 276 3.5 3.5 0.00 0.00 0.00 33 1016.9
20260509103747 82 248 3.5 4.3 0.00 0.00 0.00 36 1016.9
20260509103249 82 126 3.5 3.5 0.00 0.00 0.00 38 1016.9
20260509102747 82 120 4.3 4.3 0.00 0.00 0.00 37 1016.9
20260509102247 82 191 1.7 1.7 0.00 0.00 0.00 38 1016.9
20260509101747 80 216 0.0 0.0 0.00 0.00 0.00 37 1017.3
20260509101248 80 168 4.3 5.2 0.00 0.00 0.00 38 1017.3
20260509100747 81 205 2.6 2.6 0.00 0.00 0.00 37 1017.3
20260509100247 80 71 3.5 3.5 0.00 0.00 0.00 37 1017.3
20260509095748 80 168 1.7 1.7 0.00 0.00 0.00 35 1017.3
20260509095247 81 138 1.7 1.7 0.00 0.00 0.00 36 1017.3
20260509094747 81 156 2.6 2.6 0.00 0.00 0.00 34 1017.6
20260509094247 81 156 1.7 1.7 0.00 0.00 0.00 34 1017.6
20260509093748 81 185 1.7 1.7 0.00 0.00 0.00 34 1017.6
20260509093247 79 282 0.0 0.0 0.00 0.00 0.00 37 1017.6
20260509092747 78 126 1.7 1.7 0.00 0.00 0.00 38 1017.6
20260509092247 78 186 4.3 5.2 0.00 0.00 0.00 36 1017.9
20260509091747 79 277 3.5 3.5 0.00 0.00 0.00 37 1017.6
20260509091247 78 264 3.5 3.5 0.00 0.00 0.00 41 1017.6
20260509090747 81 245 2.6 2.6 0.00 0.00 0.00 38 1017.6
20260509090247 79 108 0.9 0.9 0.00 0.00 0.00 37 1017.9
20260509085747 79 180 3.5 3.5 0.00 0.00 0.00 39 1017.9
20260509085248 79 172 4.3 4.3 0.00 0.00 0.00 37 1017.9
20260509084750 80 139 2.6 2.6 0.00 0.00 0.00 38 1017.9
20260509084248 79 78 0.0 0.0 0.00 0.00 0.00 40 1017.9
20260509083747 80 54 0.0 0.0 0.00 0.00 0.00 39 1017.9
20260509083247 81 322 0.9 0.9 0.00 0.00 0.00 39 1017.9
20260509082747 80 115 1.7 1.7 0.00 0.00 0.00 38 1018.3
20260509082247 79 84 0.0 0.0 0.00 0.00 0.00 40 1018.3
20260509081748 78 114 0.0 0.0 0.00 0.00 0.00 42 1018.3
20260509081248 78 81 1.7 1.7 0.00 0.00 0.00 40 1017.9
20260509080747 79 278 0.0 0.0 0.00 0.00 0.00 40 1018.3
20260509080247 79 88 0.0 0.0 0.00 0.00 0.00 40 1018.3
20260509075747 79 166 0.0 0.0 0.00 0.00 0.00 41 1018.3
20260509075247 79 114 0.9 0.9 0.00 0.00 0.00 40 1018.6
20260509074747 78 108 0.0 0.0 0.00 0.00 0.00 41 1018.6
20260509074247 77 229 0.0 0.0 0.00 0.00 0.00 44 1018.6
20260509073748 77 191 0.9 0.9 0.00 0.00 0.00 47 1018.6
20260509073247 77 139 1.7 1.7 0.00 0.00 0.00 45 1018.6
20260509072747 76 213 1.7 1.7 0.00 0.00 0.00 50 1018.3
20260509072247 75 120 0.9 0.9 0.00 0.00 0.00 49 1018.6
20260509071748 75 54 0.9 0.9 0.00 0.00 0.00 50 1018.6
20260509071247 75 180 1.7 1.7 0.00 0.00 0.00 49 1019.0
20260509070747 74 141 1.7 1.7 0.00 0.00 0.00 49 1019.0
20260509070248 74 204 2.6 2.6 0.00 0.00 0.00 51 1018.6
20260509065747 75 141 1.7 1.7 0.00 0.00 0.00 49 1018.6
20260509065247 75 108 1.7 1.7 0.00 0.00 0.00 49 1018.6
20260509064747 72 144 0.9 0.9 0.00 0.00 0.00 50 1018.6
20260509064247 72 144 0.9 0.9 0.00 0.00 0.00 50 1018.6
20260509063748 72 156 2.6 2.6 0.00 0.00 0.00 51 1018.6
20260509063248 73 97 0.0 0.0 0.00 0.00 0.00 49 1018.6
20260509062747 73 154 1.7 1.7 0.00 0.00 0.00 49 1018.6
20260509062247 73 104 0.9 0.9 0.00 0.00 0.00 49 1018.6
20260509061747 72 163 1.7 1.7 0.00 0.00 0.00 48 1019.0
20260509061248 73 122 1.7 1.7 0.00 0.00 0.00 50 1019.0
20260509060749 73 96 0.0 0.0 0.00 0.00 0.00 49 1019.0
20260509060247 72 84 0.0 0.0 0.00 0.00 0.00 50 1019.0
20260509055747 71 161 0.0 0.0 0.00 0.00 0.00 51 1019.0
20260509055251 71 108 0.0 0.0 0.00 0.00 0.00 51 1019.0
20260509054747 70 72 0.0 0.0 0.00 0.00 0.00 53 1019.0
20260509054248 69 117 0.0 0.0 0.00 0.00 0.00 55 1019.0
20260509053747 69 72 0.0 0.0 0.00 0.00 0.00 51 1019.0
20260509053247 69 102 0.9 0.9 0.00 0.00 0.00 54 1019.0
20260509052747 68 190 0.9 0.9 0.00 0.00 0.00 59 1019.0
20260509052248 67 144 0.0 0.0 0.00 0.00 0.00 59 1019.0
20260509051748 66 124 0.9 0.9 0.00 0.00 0.00 63 1019.0
20260509051248 66 132 0.9 0.9 0.00 0.00 0.00 63 1019.0
20260509050752 66 106 0.0 0.0 0.00 0.00 0.00 62 1019.0
20260509050247 65 348 0.0 0.0 0.00 0.00 0.00 63 1019.0
20260509045747 64 234 0.0 0.0 0.00 0.00 0.00 65 1019.0
20260509045247 64 90 0.0 0.0 0.00 0.00 0.00 63 1019.3
20260509044747 63 107 0.0 0.0 0.00 0.00 0.00 65 1019.3
20260509044247 63 135 0.9 0.9 0.00 0.00 0.00 67 1019.3
20260509043747 63 211 0.0 0.0 0.00 0.00 0.00 67 1019.3
20260509043248 63 276 0.0 0.0 0.00 0.00 0.00 66 1019.3
20260509042747 62 126 0.0 0.0 0.00 0.00 0.00 65 1019.3
20260509042247 62 98 0.0 0.0 0.00 0.00 0.00 65 1019.3
20260509041747 60 108 0.0 0.0 0.00 0.00 0.00 68 1019.3
20260509041248 60 85 0.0 0.0 0.00 0.00 0.00 69 1019.0
20260509040748 60 36 0.0 0.0 0.00 0.00 0.00 70 1019.3
20260509040247 59 0 0.0 0.0 0.00 0.00 0.00 71 1019.3
20260509035747 58 30 0.0 0.0 0.00 0.00 0.00 72 1019.0
20260509035247 59 60 0.0 0.0 0.00 0.00 0.00 72 1019.3
20260509034747 59 34 0.0 0.0 0.00 0.00 0.00 71 1019.0
20260509034248 58 54 0.0 0.0 0.00 0.00 0.00 73 1019.0
20260509033747 57 160 0.0 0.0 0.00 0.00 0.00 74 1019.0
20260509033248 57 6 0.9 0.9 0.00 0.00 0.00 74 1019.0
20260509032747 56 54 0.0 0.0 0.00 0.00 0.00 74 1019.0
20260509032247 56 96 0.9 0.9 0.00 0.00 0.00 75 1019.0
20260509031747 56 36 0.0 0.0 0.00 0.00 0.00 76 1018.6
20260509031248 56 6 0.0 0.0 0.00 0.00 0.00 76 1018.6
20260509030748 55 36 0.0 0.0 0.00 0.00 0.00 77 1018.6
20260509030247 55 84 0.0 0.0 0.00 0.00 0.00 79 1018.3
20260509025747 55 90 0.0 0.0 0.00 0.00 0.00 80 1018.6
20260509025249 55 72 0.0 0.0 0.00 0.00 0.00 80 1018.6
20260509024748 55 108 0.0 0.0 0.00 0.00 0.00 81 1018.6
20260509024247 55 102 0.0 0.0 0.00 0.00 0.00 81 1018.6
20260509023748 55 150 0.9 0.9 0.00 0.00 0.00 80 1018.6
20260509023247 55 216 0.0 0.0 0.00 0.00 0.00 79 1018.3
20260509022747 55 174 0.0 0.0 0.00 0.00 0.00 80 1018.6
20260509022247 55 132 0.0 0.0 0.00 0.00 0.00 79 1018.3
20260509021748 55 168 0.0 0.0 0.00 0.00 0.00 78 1018.3
20260509021247 55 197 0.0 0.0 0.00 0.00 0.00 78 1018.3
20260509020749 55 78 0.0 0.0 0.00 0.00 0.00 78 1018.3
20260509020248 55 246 0.0 0.0 0.00 0.00 0.00 78 1018.3
20260509015747 56 138 0.0 0.0 0.00 0.00 0.00 77 1018.3
20260509015249 56 90 0.0 0.0 0.00 0.00 0.00 77 1018.3
20260509014754 56 131 0.0 0.0 0.00 0.00 0.00 76 1018.3
20260509014247 56 96 1.7 1.7 0.00 0.00 0.00 76 1018.3
20260509013747 56 84 0.0 0.0 0.00 0.00 0.00 75 1018.3
20260509013247 57 102 0.0 0.0 0.00 0.00 0.00 76 1018.3
20260509012747 57 119 0.0 0.0 0.00 0.00 0.00 75 1018.3
20260509012248 57 142 0.0 0.0 0.00 0.00 0.00 75 1018.3
20260509011747 57 294 0.0 0.0 0.00 0.00 0.00 76 1018.3
20260509011247 57 60 0.0 0.0 0.00 0.00 0.00 76 1017.9
20260509010747 57 113 0.0 0.0 0.00 0.00 0.00 75 1017.9
20260509010247 57 72 0.0 0.0 0.00 0.00 0.00 75 1017.9
20260509005747 57 96 0.0 0.0 0.00 0.00 0.00 76 1018.3
20260509005247 57 234 0.0 0.0 0.00 0.00 0.00 75 1017.9
20260509004747 57 355 0.0 0.0 0.00 0.00 0.00 76 1017.9
20260509004248 57 144 0.0 0.0 0.00 0.00 0.00 76 1017.9
20260509003748 57 132 0.0 0.0 0.00 0.00 0.00 75 1017.9
20260509003248 57 90 0.0 0.0 0.00 0.00 0.00 74 1018.3
20260509002747 57 78 0.0 0.0 0.00 0.00 0.00 74 1018.3
20260509002247 57 0 0.0 0.0 0.00 0.00 0.00 75 1018.3
20260509001747 57 6 0.0 0.0 0.00 0.00 0.00 75 1018.3
20260509001247 57 48 1.7 1.7 0.00 0.00 0.00 75 1018.3
20260509000747 57 30 1.7 1.7 0.00 0.00 0.00 75 1018.3
20260509000248 57 287 0.0 0.0 0.00 0.00 0.00 77 1017.9
20260508235747 57 150 0.0 0.0 0.00 0.00 0.00 78 1017.9
20260508235247 57 228 0.0 0.0 0.00 0.00 0.00 79 1018.3
20260508234748 57 96 0.0 0.0 0.00 0.00 0.00 79 1017.9
20260508234247 57 170 0.0 0.0 0.00 0.00 0.00 77 1017.9
20260508233748 57 120 0.0 0.0 0.00 0.00 0.00 76 1018.3
20260508233248 58 168 0.0 0.0 0.00 0.00 0.00 76 1018.3
20260508232748 58 96 0.0 0.0 0.00 0.00 0.00 76 1018.3
20260508232247 58 84 0.0 0.0 0.00 0.00 0.00 76 1018.3
20260508231748 58 162 0.0 0.0 0.00 0.00 0.00 77 1018.3
20260508231247 58 150 0.0 0.0 0.00 0.00 0.00 76 1018.3
20260508230748 58 84 0.0 0.0 0.00 0.00 0.00 75 1017.9
20260508230248 58 66 0.0 0.0 0.00 0.00 0.00 75 1018.3
20260508225748 58 150 0.0 0.0 0.00 0.00 0.00 77 1018.3
20260508225247 58 186 0.0 0.0 0.00 0.00 0.00 76 1018.3
20260508224747 59 260 0.0 0.0 0.00 0.00 0.00 75 1018.3
20260508224247 59 84 0.0 0.0 0.00 0.00 0.00 74 1018.3
20260508223747 58 197 0.0 0.0 0.00 0.00 0.00 76 1018.3
20260508223247 58 170 0.0 0.0 0.00 0.00 0.00 76 1018.6
20260508222748 59 246 0.0 0.0 0.00 0.00 0.00 76 1018.3
20260508222248 59 276 0.0 0.0 0.00 0.00 0.00 77 1018.6
20260508221747 59 132 0.0 0.0 0.00 0.00 0.00 77 1018.3
20260508221247 59 162 0.0 0.0 0.00 0.00 0.00 77 1018.3
20260508220747 59 202 0.0 0.0 0.00 0.00 0.00 76 1018.6
20260508215747 60 258 0.0 0.0 0.00 0.00 0.00 76 1018.6
20260508215247 60 258 0.0 0.0 0.00 0.00 0.00 76 1018.6
20260508214747 60 258 0.0 0.0 0.00 0.00 0.00 76 1018.6
20260508214249 60 258 0.0 0.0 0.00 0.00 0.00 76 1018.6
20260508213747 60 186 0.0 0.0 0.00 0.00 0.00 75 1018.6
20260508212249 61 125 0.0 0.0 0.00 0.00 0.00 73 1018.6
20260508211748 61 125 0.0 0.0 0.00 0.00 0.00 73 1018.6
20260508211247 61 125 0.0 0.0 0.00 0.00 0.00 73 1018.6
20260508210748 61 60 0.9 0.9 0.00 0.00 0.00 72 1019.0
20260508210248 61 60 0.9 0.9 0.00 0.00 0.00 72 1019.0
20260508205748 61 90 0.0 0.0 0.00 0.00 0.00 73 1019.0
20260508205247 61 102 0.0 0.0 0.00 0.00 0.00 73 1019.0
20260508204747 61 36 0.0 0.0 0.00 0.00 0.00 72 1019.0
20260508204247 62 228 0.0 0.0 0.00 0.00 0.00 73 1019.0
20260508203748 63 264 0.0 0.0 0.00 0.00 0.00 74 1019.0
20260508203247 63 78 0.0 0.0 0.00 0.00 0.00 74 1019.0
20260508202747 63 234 0.0 0.0 0.00 0.00 0.00 72 1019.0
20260508202247 63 192 0.0 0.0 0.00 0.00 0.00 72 1019.0
20260508201748 63 192 0.0 0.0 0.00 0.00 0.00 72 1019.0
20260508201247 64 180 0.0 0.0 0.00 0.00 0.00 72 1019.0
20260508200748 64 180 0.0 0.0 0.00 0.00 0.00 72 1019.0
20260508200248 64 126 0.0 0.0 0.00 0.00 0.00 70 1019.0
20260508195747 64 113 0.0 0.0 0.00 0.00 0.00 69 1019.0
20260508195248 65 102 0.0 0.0 0.00 0.00 0.00 68 1019.0
20260508194747 64 126 0.0 0.0 0.00 0.00 0.00 67 1019.0
20260508194247 65 90 0.0 0.0 0.00 0.00 0.00 67 1019.0
20260508193747 65 102 1.7 1.7 0.00 0.00 0.00 66 1019.0
20260508193248 65 102 1.7 1.7 0.00 0.00 0.00 66 1019.0
20260508192747 65 54 0.0 0.0 0.00 0.00 0.00 69 1019.0
20260508192248 65 60 0.0 0.0 0.00 0.00 0.00 68 1019.0
20260508191747 65 66 0.0 0.0 0.00 0.00 0.00 69 1019.0
20260508191248 65 42 0.0 0.0 0.00 0.00 0.00 69 1019.0
20260508190750 66 60 0.0 0.0 0.00 0.00 0.00 67 1019.0
20260508190247 66 60 0.0 0.0 0.00 0.00 0.00 67 1019.0
20260508185748 66 60 0.0 0.0 0.00 0.00 0.00 67 1018.6
20260508185248 66 84 0.0 0.0 0.00 0.00 0.00 67 1019.0
20260508184747 66 50 0.0 0.0 0.00 0.00 0.00 66 1018.6
20260508184247 67 124 0.0 0.0 0.00 0.00 0.00 67 1019.0
20260508183747 67 112 0.0 0.0 0.00 0.00 0.00 67 1018.6
20260508183248 67 184 0.0 0.0 0.00 0.00 0.00 68 1018.6
20260508182749 67 40 0.0 0.0 0.00 0.00 0.00 67 1018.6
20260508182248 67 80 0.0 0.0 0.00 0.00 0.00 67 1018.6
20260508181747 67 72 0.0 0.0 0.00 0.00 0.00 65 1018.3
20260508181249 68 102 0.0 0.0 0.00 0.00 0.00 64 1018.6
20260508180747 68 114 0.9 0.9 0.00 0.00 0.00 66 1018.3
20260508180248 68 113 0.0 0.0 0.00 0.00 0.00 67 1018.3
20260508175747 68 34 0.0 0.0 0.00 0.00 0.00 66 1018.3
20260508175248 68 34 0.0 0.0 0.00 0.00 0.00 66 1018.3
20260508174748 68 91 0.0 0.0 0.00 0.00 0.00 66 1018.3
20260508174247 68 90 0.0 0.0 0.00 0.00 0.00 65 1017.9
20260508173748 68 90 0.0 0.0 0.00 0.00 0.00 65 1017.9
20260508173251 68 114 0.0 0.0 0.00 0.00 0.00 64 1017.9
20260508172749 68 97 0.0 0.0 0.00 0.00 0.00 65 1017.9
20260508172247 68 106 0.0 0.0 0.00 0.00 0.00 64 1017.9
20260508171747 69 306 0.0 0.0 0.00 0.00 0.00 66 1017.6
20260508171247 70 48 0.0 0.0 0.00 0.00 0.00 64 1017.6
20260508170748 70 96 0.0 0.0 0.00 0.00 0.00 62 1017.6
20260508170247 71 136 0.0 0.0 0.00 0.00 0.00 63 1017.3
20260508165747 71 282 0.0 0.0 0.00 0.00 0.00 59 1017.6
20260508165248 71 34 0.0 0.0 0.00 0.00 0.00 58 1017.3
20260508164748 71 85 1.7 1.7 0.00 0.00 0.00 58 1017.3
20260508164252 72 209 0.0 0.0 0.00 0.00 0.00 58 1017.3
20260508163748 72 108 0.0 0.0 0.00 0.00 0.00 59 1017.3
20260508163247 73 113 0.0 0.0 0.00 0.00 0.00 58 1016.9
20260508162747 74 190 0.0 0.0 0.00 0.00 0.00 56 1017.3
20260508162248 76 345 0.0 0.0 0.00 0.00 0.00 49 1017.3
20260508161748 77 342 0.0 0.0 0.00 0.00 0.00 43 1017.3
20260508161248 77 323 1.7 1.7 0.00 0.00 0.00 43 1017.3
20260508160747 77 322 1.7 1.7 0.00 0.00 0.00 43 1017.3
20260508160248 77 330 0.0 0.0 0.00 0.00 0.00 42 1017.3
20260508155748 77 330 2.6 2.6 0.00 0.00 0.00 42 1017.3
20260508155248 77 343 1.7 1.7 0.00 0.00 0.00 43 1017.3
20260508154748 78 330 4.3 4.3 0.00 0.00 0.00 43 1016.9
20260508154247 78 342 2.6 2.6 0.00 0.00 0.00 43 1016.9
20260508153750 78 3 2.6 2.6 0.00 0.00 0.00 42 1016.9
20260508153247 79 345 4.3 4.3 0.00 0.00 0.00 43 1016.9
20260508152748 79 277 0.9 0.9 0.00 0.00 0.00 42 1016.9
20260508152247 81 311 1.7 1.7 0.00 0.00 0.00 37 1016.9
20260508151748 80 8 0.9 0.9 0.00 0.00 0.00 36 1016.6
20260508151248 80 354 0.9 0.9 0.00 0.00 0.00 35 1016.6
20260508150748 81 31 0.0 0.0 0.00 0.00 0.00 34 1016.6
20260508150248 81 162 0.0 0.0 0.00 0.00 0.00 34 1016.9
20260508145747 81 6 0.0 0.0 0.00 0.00 0.00 36 1016.6
20260508145248 82 35 0.0 0.0 0.00 0.00 0.00 35 1016.9
20260508144747 82 109 0.0 0.0 0.00 0.00 0.00 37 1016.6
20260508144247 81 41 0.0 0.0 0.00 0.00 0.00 38 1016.9